N42LR EGBB-EGNT

Flight info

Callsign N42LR
Flight time N/A
Altitude 7000
Route LUVUM DCT TNT/N0176F080 N57 POL
Aircraft DA42/L-SBDGRY/S

Departure

Time 2026-05-05 16:52
Airport Birmingham Airport (EGBB)

Arrival

Time N/A
Airport Newcastle International Airport (EGNT)
Time Latitude Longitude Altitude Speed Heading
2026-05-05 16:45 52.44889 -1.73477 325 ft 0 kts 338°
2026-05-05 16:45 52.44905 -1.73532 325 ft 9 kts 248°
2026-05-05 16:45 52.44870 -1.73633 325 ft 9 kts 229°
2026-05-05 16:45 52.44827 -1.73685 325 ft 12 kts 196°
2026-05-05 16:46 52.44792 -1.73704 325 ft 0 kts 189°
2026-05-05 16:46 52.44768 -1.73714 326 ft 14 kts 199°
2026-05-05 16:46 52.44719 -1.73781 326 ft 0 kts 234°
2026-05-05 16:51 52.44718 -1.73782 326 ft 2 kts 233°
2026-05-05 16:51 52.44678 -1.73888 327 ft 14 kts 234°
2026-05-05 16:51 52.44707 -1.74060 324 ft 34 kts 330°
2026-05-05 16:52 52.45062 -1.74447 332 ft 81 kts 326°
2026-05-05 16:52 52.45548 -1.75000 572 ft 86 kts 325°
2026-05-05 16:52 52.46109 -1.75468 797 ft 99 kts 353°
2026-05-05 16:52 52.46767 -1.75129 1144 ft 104 kts 31°
2026-05-05 16:53 52.47445 -1.74675 1420 ft 107 kts 10°
2026-05-05 16:53 52.48181 -1.74508 1756 ft 107 kts
2026-05-05 16:53 52.48929 -1.74393 2065 ft 109 kts 358°
2026-05-05 16:53 52.49589 -1.74938 2356 ft 111 kts 311°
2026-05-05 16:54 52.50174 -1.75716 2639 ft 110 kts 345°
2026-05-05 16:54 52.50918 -1.75580 2936 ft 111 kts 22°
2026-05-05 16:54 52.51670 -1.75300 3221 ft 111 kts
2026-05-05 16:54 52.52446 -1.75264 3513 ft 112 kts 359°
2026-05-05 16:55 52.53230 -1.75268 3809 ft 113 kts 358°
2026-05-05 16:55 52.54019 -1.75284 4101 ft 114 kts 358°
2026-05-05 16:55 52.54815 -1.75307 4389 ft 115 kts 356°
2026-05-05 16:55 52.55607 -1.75332 4687 ft 115 kts 356°
2026-05-05 16:56 52.56373 -1.75359 4947 ft 116 kts 356°
2026-05-05 16:56 52.57185 -1.75387 5220 ft 117 kts 356°
2026-05-05 16:56 52.58008 -1.75416 5496 ft 118 kts 356°
2026-05-05 16:56 52.58835 -1.75445 5772 ft 119 kts 356°
2026-05-05 16:57 52.59666 -1.75475 6060 ft 120 kts 355°
2026-05-05 16:57 52.60563 -1.75508 6099 ft 139 kts 356°
2026-05-05 16:57 52.61576 -1.75542 6103 ft 151 kts 356°
2026-05-05 16:57 52.62657 -1.75580 6100 ft 158 kts 356°
2026-05-05 16:58 52.63773 -1.75620 6099 ft 162 kts 356°
2026-05-05 16:58 52.64911 -1.75662 6100 ft 165 kts 356°
2026-05-05 16:58 52.66048 -1.75702 6106 ft 166 kts 356°
2026-05-05 16:58 52.67222 -1.75570 6099 ft 168 kts
2026-05-05 16:59 52.68383 -1.75332 6102 ft 168 kts
2026-05-05 16:59 52.69546 -1.75092 6100 ft 169 kts
2026-05-05 16:59 52.70712 -1.74851 6099 ft 169 kts
2026-05-05 16:59 52.71878 -1.74608 6100 ft 169 kts
2026-05-05 17:00 52.73045 -1.74345 6098 ft 169 kts
2026-05-05 17:00 52.74209 -1.74079 6101 ft 169 kts
2026-05-05 17:00 52.75369 -1.73816 6098 ft 169 kts
2026-05-05 17:00 52.76535 -1.73552 6102 ft 169 kts
2026-05-05 17:01 52.77690 -1.73293 6096 ft 169 kts
2026-05-05 17:01 52.78849 -1.73031 6095 ft 168 kts
2026-05-05 17:01 52.80009 -1.72768 6093 ft 168 kts
2026-05-05 17:01 52.81190 -1.72500 6265 ft 160 kts
2026-05-05 17:02 52.82227 -1.72264 6445 ft 155 kts
2026-05-05 17:02 52.83282 -1.72026 6615 ft 152 kts
2026-05-05 17:02 52.84323 -1.71792 6784 ft 150 kts
2026-05-05 17:02 52.85353 -1.71559 6954 ft 149 kts
2026-05-05 17:03 52.86403 -1.71322 6991 ft 157 kts
2026-05-05 17:03 52.87507 -1.71072 6997 ft 163 kts
2026-05-05 17:03 52.88645 -1.70814 6993 ft 167 kts
2026-05-05 17:03 52.89410 -1.70641 6994 ft 168 kts
2026-05-05 17:04 52.90575 -1.70376 6994 ft 169 kts
2026-05-05 17:04 52.91744 -1.70110 6999 ft 170 kts
2026-05-05 17:04 52.93313 -1.69753 6992 ft 170 kts
2026-05-05 17:04 52.94489 -1.69486 6990 ft 170 kts
2026-05-05 17:05 52.95663 -1.69219 6998 ft 170 kts
2026-05-05 17:05 52.96837 -1.68951 6995 ft 170 kts
2026-05-05 17:05 52.98010 -1.68683 6992 ft 170 kts
2026-05-05 17:05 52.99181 -1.68417 6993 ft 170 kts
2026-05-05 17:06 53.00353 -1.68150 6997 ft 170 kts
2026-05-05 17:06 53.01523 -1.67882 6997 ft 170 kts
2026-05-05 17:06 53.02695 -1.67615 6998 ft 170 kts
2026-05-05 17:06 53.03866 -1.67348 6998 ft 170 kts
2026-05-05 17:07 53.05036 -1.67117 6996 ft 169 kts 359°
2026-05-05 17:07 53.06177 -1.67479 6994 ft 167 kts 339°
2026-05-05 17:07 53.06900 -1.67918 6993 ft 167 kts 338°
2026-05-05 17:07 53.07987 -1.68592 6998 ft 167 kts 338°
2026-05-05 17:08 53.09075 -1.69268 7002 ft 167 kts 338°
2026-05-05 17:08 53.10168 -1.69945 7001 ft 167 kts 338°
2026-05-05 17:08 53.11614 -1.70842 6995 ft 167 kts 338°
2026-05-05 17:08 53.12349 -1.71298 7001 ft 167 kts 339°
2026-05-05 17:09 53.13562 -1.72050 6997 ft 167 kts 338°
2026-05-05 17:09 53.14510 -1.72637 7001 ft 167 kts 339°
2026-05-05 17:09 53.15595 -1.73310 7002 ft 166 kts 339°
2026-05-05 17:09 53.16679 -1.73983 7005 ft 166 kts 339°
2026-05-05 17:10 53.17762 -1.74655 7009 ft 166 kts 339°
2026-05-05 17:10 53.18843 -1.75328 7008 ft 166 kts 339°
2026-05-05 17:10 53.19929 -1.76003 7004 ft 166 kts 339°
2026-05-05 17:10 53.21012 -1.76676 7011 ft 166 kts 339°
2026-05-05 17:11 53.22095 -1.77350 7015 ft 167 kts 339°
2026-05-05 17:11 53.23181 -1.78026 7014 ft 166 kts 339°
2026-05-05 17:11 53.24265 -1.78702 7012 ft 166 kts 339°
2026-05-05 17:11 53.25352 -1.79380 7015 ft 167 kts 339°